Back to catalog

USA 158

AliveMilitaryGEO
NORAD 26770·PAYLOAD·🇺🇸 United States

Launched May 18, 2001 from Cape Canaveral Space Force Station

Loading…

TLE

FreshSource: Mike McCants

Epoch: Sep 15, 2026, 07:07 UTC

1 26770U 01020A   26258.29698378  .00000000  00000-0  00000-0 0    03
2 26770  11.4406  31.8330 0012126 115.0140 245.1240  0.98831955 22653

Track USA 158 in real time with AllMySat

Download on the App Store